Terminal Aerodrome Forecast
Issued by NWS Sterling, VA

Home | Current Version | Previous Version | Text Only | Print | Product List | Glossary On
Versions: 1 2 3 4 5 6 7 8 9 10 11 12 13 14 15
000
FTUS41 KLWX 282300
TAFMRB
TAF
KMRB 282327Z 2900/2924 31013G22KT P6SM BKN070
     FM290200 30009KT P6SM BKN090
     FM290600 30006KT P6SM SCT090=

USA.gov is the U.S. government's official web portal to all federal, state and local government web resources and services.